Weather History for Hill City, KS

Change the Weather History Date:

Sunday, April 20, 2014

  Actual Average Record
Temperature  
Mean Temperature 67 °F 53 °F  
Max Temperature 80 °F 67 °F 92 °F (1910)
Min Temperature 53 °F 39 °F 20 °F (1953)
Cooling Degree Days 2    
Growing Degree Days 16 (Base 50)    
Moisture  
Dew Point 53 °F    
Average Humidity 74    
Maximum Humidity 96    
Minimum Humidity 34    
Precipitation  
Precipitation 1.65 in 0.09 in 1.65 in (2014)
Month to date precipitation 2.00 1.27  
Year to date precipitation 2.65 3.87  
Sea Level Pressure  
Sea Level Pressure 29.93 in    
Wind  
Wind Speed 9 mph (SSE)    
Max Wind Speed 26 mph    
Max Gust Speed 36 mph    
Visibility 8 miles    
Events Fog , Rain , Thunderstorm    
T = Trace of Precipitation, MM = Missing Value Source: NWS Daily Summary

Daily Weather History Graph

Daily Weather History Graph

Search for Another Location

Airport:

Trip Planner

Search our weather history database for the weather conditions in past years. The results will help you decide how hot, cold, wet, or windy it might be!

Date:

Astronomy

Apr. 20, 2014 Rise Set
Actual Time 6:55 AM CDT 8:22 PM CDT
Civil Twilight 6:26 AM CDT 8:50 PM CDT
Nautical Twilight 5:53 AM CDT 9:24 PM CDT
Astronomical Twilight 5:17 AM CDT 9:59 PM CDT
Moon 1:02 AM CDT (4/20) 11:17 AM CDT (4/20)
Length of Visible Light 14h 23m
Length of Day
13h 26m
Waning Gibbous, 68% of the Moon is Illuminated
Apr 20
Waning Gibbous
Apr 22
Last Quarter
Apr 29
New
May 6
First Quarter
May 14
Full

Hourly Weather History & Observations

Time (CDT) Temp. Dew Point Humidity Pressure Visibility Wind Dir Wind Speed Gust Speed Precip Events Conditions
12:53 AM 60.1 °F 51.1 °F 72% 29.92 in 10.0 mi NNW 10.4 mph - N/A   Clear
1:53 AM 59.0 °F 51.1 °F 75% 29.93 in 10.0 mi Calm Calm - N/A   Clear
2:53 AM 57.0 °F 50.0 °F 77% 29.93 in 10.0 mi Calm Calm - N/A   Clear
3:53 AM 55.0 °F 51.1 °F 86% 29.93 in 10.0 mi SW 4.6 mph - N/A   Clear
4:53 AM 55.0 °F 50.0 °F 83% 29.93 in 10.0 mi SSW 3.5 mph - N/A   Clear
5:53 AM 54.0 °F 50.0 °F 86% 29.92 in 10.0 mi SW 3.5 mph - N/A   Clear
6:53 AM 53.1 °F 48.9 °F 86% 29.94 in 10.0 mi South 5.8 mph - N/A   Clear
7:53 AM 55.0 °F 48.0 °F 77% 29.96 in 10.0 mi SSW 6.9 mph - N/A   Clear
8:53 AM 57.9 °F 50.0 °F 75% 29.96 in 10.0 mi Calm Calm - N/A   Mostly Cloudy
9:53 AM 60.1 °F 53.1 °F 78% 29.97 in 10.0 mi SW 5.8 mph - 0.01 in   Overcast
10:53 AM 68.0 °F 54.0 °F 61% 29.96 in 10.0 mi SSW 9.2 mph - N/A   Clear
11:53 AM 72.0 °F 52.0 °F 49% 29.95 in 10.0 mi SSW 10.4 mph - N/A   Clear
12:53 PM 75.0 °F 51.1 °F 43% 29.94 in 10.0 mi South 15.0 mph 20.7 mph N/A   Scattered Clouds
1:53 PM 77.0 °F 51.1 °F 40% 29.91 in 10.0 mi South 12.7 mph - N/A   Partly Cloudy
2:53 PM 78.1 °F 48.9 °F 36% 29.89 in 10.0 mi South 12.7 mph - N/A   Mostly Cloudy
3:53 PM 80.1 °F 48.9 °F 34% 29.87 in 10.0 mi South 15.0 mph 21.9 mph N/A   Mostly Cloudy
4:22 PM 78.1 °F 48.9 °F 36% 29.90 in 10.0 mi SE 10.4 mph - N/A Thunderstorm Scattered Clouds
4:53 PM 75.9 °F 50.0 °F 40% 29.86 in 10.0 mi SSW 10.4 mph 19.6 mph N/A Thunderstorm Mostly Cloudy
5:05 PM 70.0 °F 51.1 °F 51% 29.91 in 10.0 mi West 26.5 mph 35.7 mph N/A Thunderstorm Thunderstorm
5:15 PM 66.9 °F 46.9 °F 49% 29.91 in 10.0 mi WNW 21.9 mph 28.8 mph N/A Thunderstorm Thunderstorm
5:27 PM 61.0 °F 52.0 °F 72% 29.93 in 1.5 mi WNW 16.1 mph 23.0 mph 0.11 in Rain , Thunderstorm Heavy Thunderstorms and Rain
5:35 PM 61.0 °F 52.0 °F 72% 29.91 in 1.2 mi Calm Calm - 0.22 in Rain , Thunderstorm Heavy Thunderstorms and Rain
5:39 PM 62.1 °F 51.1 °F 67% 29.91 in 2.0 mi Calm Calm - 0.22 in Rain , Thunderstorm Thunderstorms and Rain
5:49 PM 60.8 °F 53.6 °F 77% 29.89 in 9.0 mi Calm Calm - 0.23 in Rain , Thunderstorm Light Thunderstorms and Rain
5:53 PM 61.0 °F 53.1 °F 75% 29.86 in 9.0 mi Calm Calm - 0.23 in Rain , Thunderstorm Light Thunderstorms and Rain
6:36 PM 61.0 °F 54.0 °F 78% 29.93 in 10.0 mi East 9.2 mph - 0.00 in Thunderstorm Thunderstorm
6:53 PM 61.0 °F 54.0 °F 78% 29.91 in 10.0 mi ESE 6.9 mph - 0.00 in Rain , Thunderstorm Light Thunderstorms and Rain
7:16 PM 61.0 °F 55.9 °F 83% 29.91 in 10.0 mi East 8.1 mph - 0.01 in Thunderstorm Mostly Cloudy
7:53 PM 60.1 °F 55.9 °F 86% 29.90 in 9.0 mi East 12.7 mph - 0.02 in Rain , Thunderstorm Light Thunderstorms and Rain
8:31 PM 60.1 °F 57.0 °F 90% 29.99 in 1.5 mi SSW 17.3 mph 28.8 mph 0.41 in Rain , Thunderstorm Heavy Thunderstorms and Rain
8:33 PM 59.0 °F 57.0 °F 93% 29.98 in 0.8 mi SSE 20.7 mph 28.8 mph 0.61 in Rain , Thunderstorm Heavy Thunderstorms and Rain
8:38 PM 57.0 °F 55.9 °F 96% 29.97 in 0.5 mi ESE 16.1 mph 28.8 mph 1.00 in Fog , Rain , Thunderstorm Heavy Thunderstorms and Rain
8:43 PM 59.0 °F 57.0 °F 93% 29.96 in 0.5 mi East 17.3 mph - 1.16 in Fog , Rain , Thunderstorm Heavy Thunderstorms and Rain
8:48 PM 59.0 °F 57.2 °F 94% 29.95 in 1.2 mi East 17.3 mph - 1.21 in Rain , Thunderstorm Heavy Thunderstorms and Rain
8:51 PM 59.0 °F 57.2 °F 94% 29.96 in 2.0 mi ESE 12.7 mph 25.3 mph 1.24 in Rain , Thunderstorm Heavy Thunderstorms and Rain
8:53 PM 59.0 °F 57.0 °F 93% 29.93 in 2.5 mi ESE 15.0 mph - 1.27 in Rain , Thunderstorm Heavy Thunderstorms and Rain
9:02 PM 59.0 °F 57.0 °F 93% 29.96 in 3.0 mi SE 17.3 mph - 0.05 in Rain , Thunderstorm Heavy Thunderstorms and Rain
9:46 PM 59.0 °F 52.0 °F 78% 29.95 in 10.0 mi SE 13.8 mph 25.3 mph 0.10 in Rain , Thunderstorm Light Rain
9:53 PM 59.0 °F 53.1 °F 81% 29.94 in 10.0 mi SSE 10.4 mph - 0.10 in Rain , Thunderstorm Light Rain
10:28 PM 59.0 °F 55.0 °F 87% 29.98 in 10.0 mi SE 9.2 mph - 0.00 in Rain Light Rain
10:38 PM 60.1 °F 55.0 °F 83% 29.98 in 10.0 mi SSE 11.5 mph - 0.01 in Rain , Thunderstorm Light Rain
10:53 PM 60.1 °F 55.9 °F 86% 29.94 in 10.0 mi SSW 8.1 mph - 0.01 in Rain Light Rain
11:53 PM 60.1 °F 55.9 °F 86% 29.93 in 10.0 mi South 4.6 mph - 0.01 in   Clear